Gadsden, AL

8:22 PM CST on December 10, 2019 (GMT -0600)
Gadsden Municipal

Weather History for KGAD - November, 2019

Change the Weather History Date:

Thursday, November 14, 2019

  Actual Average Record
Temperature  
Mean Temperature 36 °F -  
Max Temperature 44 °F 60 °F 80 °F (1931)
Min Temperature 28 °F 38 °F 19 °F (2013)
Degree Days  
Heating Degree Days 29    
Moisture  
Dew Point 32 °F    
Average Humidity 81    
Maximum Humidity 97    
Minimum Humidity 60    
Precipitation  
Precipitation 0.03 in - - ()
Sea Level Pressure  
Sea Level Pressure 30.32 in    
Wind  
Wind Speed 3 mph ()    
Max Wind Speed 8 mph    
Max Gust Speed -    
Visibility 10.0 miles    
Events Rain    
Averages and records for this station are not official NWS values.
T = Trace of Precipitation, MM = Missing Value Source: Averaged Metar Reports

Daily Weather History Graph

Daily Weather History Graph

Search for Another Location

Airport or City:

Astronomy

Nov. 14, 2019 Rise Set
Actual Time 6:15 AM CST 4:41 PM CST
Civil Twilight 5:49 AM CST 5:08 PM CST
Nautical Twilight 5:19 AM CST 5:38 PM CST
Astronomical Twilight 4:49 AM CST 6:07 PM CST
Moon 6:30 PM CST (11/14) 8:07 AM CST (11/14)
Length of Visible Light 11h 18m
Length of Day
10h 25m
Waning Gibbous, 95% of the Moon is Illuminated
Nov 14
Waning Gibbous
Nov 19
Last Quarter
Nov 26
New
Dec 4
First Quarter
Dec 11
Full

Hourly Weather History & Observations

Time (CST) Temp. Windchill Dew Point Humidity Pressure Visibility Wind Dir Wind Speed Gust Speed Precip Events Conditions
12:56 AM 30.0 °F 23.2 °F 28.0 °F 92% 30.32 in 10.0 mi NE 6.9 mph - N/A   Clear
1:56 AM 30.0 °F 26.5 °F 26.1 °F 85% 30.32 in 10.0 mi North 3.5 mph - N/A   Clear
2:56 AM 28.9 °F - 26.1 °F 89% 30.33 in 10.0 mi Calm Calm - N/A   Clear
3:56 AM 30.9 °F - 27.0 °F 85% 30.33 in 10.0 mi Calm Calm - N/A   Clear
4:56 AM 32.0 °F 28.7 °F 28.0 °F 85% 30.33 in 10.0 mi ENE 3.5 mph - N/A   Clear
5:46 AM 33.8 °F 30.8 °F 28.4 °F 81% 30.32 in 10.0 mi North 3.5 mph - N/A   Mostly Cloudy
5:56 AM 33.1 °F 30.0 °F 27.0 °F 78% 30.36 in 10.0 mi NE 3.5 mph - N/A   Scattered Clouds
6:56 AM 34.0 °F - 28.0 °F 79% 30.37 in 10.0 mi Calm Calm - N/A   Clear
7:56 AM 37.0 °F 31.0 °F 28.0 °F 70% 30.35 in 10.0 mi ENE 8.1 mph - N/A   Overcast
8:56 AM 37.9 °F 32.1 °F 28.0 °F 68% 30.36 in 10.0 mi NE 8.1 mph - N/A   Overcast
9:56 AM 39.9 °F 35.8 °F 27.0 °F 60% 30.36 in 10.0 mi NE 5.8 mph - N/A   Overcast
10:56 AM 41.0 °F 39.0 °F 28.9 °F 62% 30.37 in 10.0 mi East 3.5 mph - N/A   Overcast
11:56 AM 42.1 °F 38.4 °F 28.9 °F 60% 30.32 in 10.0 mi North 5.8 mph - N/A   Mostly Cloudy
12:56 PM 44.1 °F 42.5 °F 30.9 °F 60% 30.33 in 10.0 mi ENE 3.5 mph - N/A   Mostly Cloudy
1:56 PM 43.0 °F 40.3 °F 33.1 °F 68% 30.29 in 10.0 mi NE 4.6 mph - 0.00 in Rain Light Rain
2:56 PM 42.1 °F 39.2 °F 36.0 °F 79% 30.28 in 10.0 mi NNE 4.6 mph - 0.00 in Rain Light Rain
3:56 PM 42.1 °F 40.2 °F 37.9 °F 85% 30.29 in 10.0 mi ENE 3.5 mph - 0.01 in Rain Light Rain
4:56 PM 41.0 °F 39.0 °F 39.0 °F 93% 30.30 in 10.0 mi North 3.5 mph - 0.00 in Rain Light Rain
5:56 PM 39.9 °F 36.7 °F 39.0 °F 97% 30.30 in 10.0 mi North 4.6 mph - 0.01 in Rain Light Rain
6:56 PM 41.0 °F - 37.0 °F 86% 30.29 in 10.0 mi Calm Calm - 0.00 in   Overcast
7:56 PM 41.0 °F - 39.0 °F 93% 30.30 in 10.0 mi Calm Calm - 0.00 in Rain Light Rain
8:56 PM 41.0 °F 39.0 °F 37.9 °F 89% 30.31 in 10.0 mi SE 3.5 mph - 0.00 in   Clear
9:56 PM 41.0 °F 39.0 °F 39.9 °F 96% 30.30 in 10.0 mi North 3.5 mph - 0.01 in Rain Light Rain
10:56 PM 41.0 °F 36.4 °F 39.9 °F 96% 30.30 in 10.0 mi NW 6.9 mph - 0.00 in Rain Light Rain
11:56 PM 41.0 °F - 39.9 °F 96% 30.28 in 10.0 mi Calm Calm - 0.00 in Rain Light Rain